OE7DRT-13 Weather Reports


Display with metric or nautical units.
time (UTC)temp
F
wind
direction
speed
MPH
gust
MPH
rain 1hr
in
rain 24hr
in
rain mn
in
humidity
%
barometer
mb
20260506163035 57 21 0.0 1.0 0.00 0.00 0.00 56 1006.3
20260506162533 58 338 2.0 4.0 0.00 0.00 0.00 56 1006.2
20260506162032 58 146 1.0 3.0 0.00 0.00 0.00 53 1006.2
20260506161530 58 329 1.0 3.0 0.00 0.00 0.00 52 1006.3
20260506161028 56 295 1.0 3.0 0.00 0.00 0.00 54 1006.2
20260506160526 56 168 1.0 3.0 0.00 0.00 0.00 55 1006.2
20260506160025 56 183 1.0 3.0 0.00 0.00 0.00 58 1006.3
20260506155523 56 176 1.0 2.0 0.00 0.00 0.00 59 1006.2
20260506155021 56 183 2.0 4.0 0.00 0.00 0.00 59 1006.2
20260506154519 56 188 2.0 3.0 0.00 0.00 0.00 59 1006.2
20260506154018 57 189 1.0 3.0 0.00 0.00 0.00 58 1006.2
20260506153516 57 308 0.0 1.0 0.00 0.00 0.00 58 1006.2
20260506153034 56 359 1.0 3.0 0.00 0.00 0.00 57 1006.1
20260506152533 57 340 0.0 3.0 0.00 0.00 0.00 59 1006.2
20260506152031 56 147 0.0 1.0 0.00 0.00 0.00 58 1006.1
20260506151529 56 206 0.0 2.0 0.00 0.00 0.00 59 1006.1
20260506151028 56 172 1.0 3.0 0.00 0.00 0.00 59 1006.1
20260506150525 57 165 1.0 3.0 0.00 0.00 0.00 58 1006.2
20260506150044 57 169 0.0 2.0 0.00 0.00 0.00 58 1006.3
20260506145522 57 238 0.0 2.0 0.00 0.00 0.00 58 1006.2
20260506145020 56 222 1.0 3.0 0.00 0.00 0.00 56 1006.2
20260506144539 56 194 1.0 7.0 0.00 0.00 0.00 56 1006.1
20260506144017 56 221 2.0 8.0 0.00 0.00 0.00 57 1006.2
20260506143535 56 148 3.0 11.0 0.00 0.00 0.00 57 1006.2
20260506143034 57 159 3.0 8.0 0.00 0.00 0.00 56 1006.2
20260506142532 57 268 1.0 4.0 0.00 0.00 0.00 54 1006.1
20260506142050 58 352 5.0 9.0 0.00 0.00 0.00 50 1006.1
20260506141549 58 352 8.0 16.0 0.00 0.00 0.00 49 1006.1
20260506141027 58 5 10.0 18.0 0.00 0.00 0.00 49 1005.9
20260506140524 58 355 7.0 13.0 0.00 0.00 0.00 49 1005.8
20260506140023 59 23 9.0 18.0 0.00 0.00 0.00 48 1005.9
20260506135521 59 360 8.0 16.0 0.00 0.00 0.00 48 1005.8
20260506135019 59 7 8.0 16.0 0.00 0.00 0.00 47 1005.8
20260506134518 59 15 9.0 18.0 0.00 0.00 0.00 47 1005.8
20260506134056 58 354 7.0 14.0 0.00 0.00 0.00 47 1005.9
20260506133534 59 12 8.0 15.0 0.00 0.00 0.00 47 1006.1
20260506133033 59 10 8.0 15.0 0.00 0.00 0.00 47 1006.0
20260506132531 59 18 7.0 16.0 0.00 0.00 0.00 46 1005.9
20260506132030 59 4 7.0 13.0 0.00 0.00 0.00 46 1006.1
20260506131548 59 22 5.0 13.0 0.00 0.00 0.00 46 1005.9
20260506131026 59 33 6.0 16.0 0.00 0.00 0.00 47 1006.1
20260506130524 59 4 7.0 14.0 0.00 0.00 0.00 46 1006.2
20260506130022 60 1 8.0 16.0 0.00 0.00 0.00 44 1006.0
20260506125520 60 7 9.0 24.0 0.00 0.00 0.00 44 1005.8
20260506125039 61 360 8.0 17.0 0.00 0.00 0.00 44 1005.6
20260506124517 60 352 2.0 7.0 0.00 0.00 0.00 45 1005.8
20260506124016 60 6 7.0 19.0 0.00 0.00 0.00 44 1005.8
20260506123554 60 13 8.0 19.0 0.00 0.00 0.00 45 1005.8
20260506123052 62 23 10.0 18.0 0.00 0.00 0.00 44 1005.5
20260506122530 62 339 9.0 17.0 0.00 0.00 0.00 44 1005.6
20260506122028 61 10 6.0 14.0 0.00 0.00 0.00 44 1005.5
20260506121527 61 358 7.0 14.0 0.00 0.00 0.00 45 1005.4
20260506121025 60 7 8.0 19.0 0.00 0.00 0.00 46 1005.4
20260506120523 60 5 8.0 25.0 0.00 0.00 0.00 46 1005.6
20260506120041 60 2 9.0 18.0 0.00 0.00 0.00 47 1005.7
20260506115520 60 8 10.0 21.0 0.00 0.00 0.00 48 1005.5
20260506115018 59 18 7.0 14.0 0.00 0.00 0.00 50 1005.7
20260506114516 57 331 2.0 9.0 0.00 0.00 0.00 51 1005.9
20260506114055 56 357 5.0 11.0 0.00 0.00 0.00 54 1005.9
20260506113533 57 355 9.0 17.0 0.00 0.00 0.00 55 1005.9
20260506113031 57 0 6.0 11.0 0.00 0.00 0.00 52 1005.9
20260506112529 57 359 6.0 16.0 0.00 0.00 0.00 51 1005.8
20260506112028 56 353 8.0 14.0 0.00 0.00 0.00 51 1005.9
20260506111526 57 5 9.0 16.0 0.00 0.00 0.00 50 1005.9
20260506111024 57 2 5.0 11.0 0.00 0.00 0.00 50 1006.1
20260506110543 58 349 8.0 15.0 0.00 0.00 0.00 49 1006.0
20260506110020 57 10 3.0 13.0 0.00 0.00 0.00 50 1006.1
20260506105519 57 19 4.0 10.0 0.00 0.00 0.00 50 1006.2
20260506105017 57 11 4.0 13.0 0.00 0.00 0.00 50 1006.2
20260506104516 57 16 6.0 14.0 0.00 0.00 0.00 49 1006.3
20260506104034 57 26 8.0 13.0 0.00 0.00 0.00 49 1006.1
20260506103532 58 8 8.0 19.0 0.00 0.00 0.00 49 1006.1
20260506103030 58 15 10.0 17.0 0.00 0.00 0.00 49 1006.2
20260506102529 58 10 7.0 14.0 0.00 0.00 0.00 49 1006.5
20260506102047 57 6 8.0 17.0 0.00 0.00 0.00 49 1006.5
20260506101546 57 18 10.0 19.0 0.00 0.00 0.00 50 1006.5
20260506101024 57 18 10.0 19.0 0.00 0.00 0.00 50 1006.6
20260506100522 57 7 8.0 18.0 0.00 0.00 0.00 51 1006.6
20260506100020 56 11 11.0 21.0 0.00 0.00 0.00 52 1006.6
20260506095519 55 25 9.0 15.0 0.00 0.00 0.00 53 1006.6
20260506095016 55 24 10.0 18.0 0.00 0.00 0.00 54 1006.9
20260506094535 55 339 8.0 15.0 0.00 0.00 0.00 54 1006.9
20260506094033 55 17 9.0 16.0 0.00 0.00 0.00 55 1006.9
20260506093531 55 10 9.0 19.0 0.00 0.00 0.00 54 1006.8
20260506093029 54 4 7.0 19.0 0.00 0.00 0.00 57 1007.1
20260506092607 54 3 9.0 18.0 0.00 0.00 0.00 58 1007.3
20260506092026 53 340 2.0 7.0 0.00 0.00 0.00 59 1007.5
20260506091524 53 359 5.0 13.0 0.00 0.00 0.00 59 1007.5
20260506091022 53 13 7.0 17.0 0.00 0.00 0.00 56 1007.4
20260506090521 54 15 6.0 11.0 0.00 0.00 0.00 56 1007.3
20260506090019 54 6 8.0 16.0 0.00 0.00 0.00 57 1007.3
20260506085517 53 17 7.0 14.0 0.00 0.00 0.00 57 1007.2
20260506085015 53 28 3.0 10.0 0.00 0.00 0.00 58 1007.4
20260506084534 53 338 6.0 11.0 0.00 0.00 0.00 58 1007.5
20260506084032 54 352 5.0 14.0 0.00 0.00 0.00 57 1007.2
20260506083530 54 339 7.0 13.0 0.00 0.00 0.00 57 1007.1
20260506083028 54 348 3.0 14.0 0.00 0.00 0.00 56 1007.5
20260506082527 55 56 2.0 10.0 0.00 0.00 0.00 53 1007.6
20260506082105 55 355 3.0 11.0 0.00 0.00 0.00 52 1007.4
20260506081523 55 291 1.0 6.0 0.00 0.00 0.00 51 1007.5
20260506081021 55 12 2.0 7.0 0.00 0.00 0.00 51 1007.0
20260506080519 55 39 1.0 6.0 0.00 0.00 0.00 52 1006.8
20260506073028 51 0.0 0.0 0.00 0.00 0.00 69 1007.2
20260506072526 50 181 1.0 3.0 0.00 0.00 0.00 70 1007.4
20260506072044 50 318 1.0 2.0 0.00 0.00 0.00 68 1007.4
20260506071523 49 176 0.0 2.0 0.00 0.00 0.00 68 1007.3
20260506071021 49 34 0.0 1.0 0.00 0.00 0.00 69 1007.5
20260506070539 49 0.0 0.0 0.00 0.00 0.00 68 1007.5
20260506062044 47 338 0.0 1.0 0.00 0.00 0.00 74 1008.0
20260506061521 47 6 0.0 1.0 0.00 0.00 0.00 74 1008.0
20260506061020 46 0.0 0.0 0.00 0.00 0.00 76 1008.0
20260506060518 45 0.0 0.0 0.00 0.00 0.00 76 1007.9
20260506051019 44 0.0 0.0 0.00 0.00 0.00 79 1008.1
20260506050518 43 0.0 0.0 0.00 0.00 0.00 80 1008.1
20260506045032 43 0.0 0.0 0.00 0.00 0.00 80 1008.3
20260506044531 43 0.0 0.0 0.00 0.00 0.00 80 1008.3
20260506044029 42 232 0.0 1.0 0.00 0.00 0.00 81 1008.5
20260506043527 42 17 0.0 1.0 0.00 0.00 0.00 81 1008.5
20260506043046 42 352 0.0 1.0 0.00 0.00 0.00 80 1008.4
20260506042524 43 0.0 0.0 0.00 0.00 0.00 81 1008.5
20260506042022 43 352 0.0 2.0 0.00 0.00 0.00 80 1008.7
20260506041521 43 0.0 0.0 0.00 0.00 0.00 81 1008.7
20260506041019 43 0.0 0.0 0.00 0.00 0.00 81 1008.8
20260506040518 42 0.0 0.0 0.00 0.00 0.00 81 1008.9
20260506040016 42 166 0.0 1.0 0.00 0.00 0.00 81 1009.0
20260506035555 42 344 0.0 2.0 0.00 0.00 0.00 80 1008.8
20260506035032 42 322 0.0 3.0 0.00 0.00 0.00 81 1008.9
20260506034531 43 0.0 0.0 0.00 0.00 0.00 80 1008.8
20260506034029 42 0.0 0.0 0.00 0.00 0.00 81 1009.0
20260506033527 42 0.0 0.0 0.00 0.00 0.00 81 1009.0
20260506033026 43 0.0 0.0 0.00 0.00 0.00 81 1008.9
20260506032544 43 0.0 0.0 0.00 0.00 0.00 81 1009.0
20260506032023 43 0.0 0.0 0.00 0.00 0.00 81 1009.0
20260506031521 43 0.0 0.0 0.00 0.00 0.00 80 1009.0
20260506031019 43 0.0 0.0 0.00 0.00 0.00 80 1009.1
20260506030518 43 0.0 0.0 0.00 0.00 0.00 80 1009.1
20260506030016 43 0.0 0.0 0.00 0.00 0.00 79 1009.1
20260506025534 43 0.0 0.0 0.00 0.00 0.00 79 1009.1
20260506025033 43 0.0 0.0 0.00 0.00 0.00 80 1009.3
20260506024531 43 0.0 0.0 0.00 0.00 0.00 79 1009.2
20260506024029 43 0.0 0.0 0.00 0.00 0.00 79 1009.4
20260506023527 43 0.0 0.0 0.00 0.00 0.00 80 1009.6
20260506023026 43 0.0 0.0 0.00 0.00 0.00 79 1009.7
20260506022544 43 0.0 0.0 0.00 0.00 0.00 79 1009.7
20260506022023 43 0.0 0.0 0.00 0.00 0.00 78 1009.7
20260506021521 43 0.0 0.0 0.00 0.00 0.00 79 1009.9
20260506021019 43 0.0 0.0 0.00 0.00 0.00 78 1009.9
20260506020517 44 0.0 0.0 0.00 0.00 0.00 77 1009.8
20260506020015 44 320 0.0 1.0 0.00 0.00 0.00 76 1010.0
20260506015534 44 0.0 0.0 0.00 0.00 0.00 75 1010.0
20260506015032 44 0.0 0.0 0.00 0.00 0.00 74 1010.0
20260506014530 44 191 0.0 1.0 0.00 0.00 0.00 74 1010.2
20260506014029 44 201 0.0 1.0 0.00 0.00 0.00 74 1010.2
20260506013547 45 0.0 0.0 0.00 0.00 0.00 74 1010.1
20260506013025 45 0.0 0.0 0.00 0.00 0.00 73 1010.1
20260506012523 46 0.0 0.0 0.00 0.00 0.00 71 1009.9
20260506012042 46 214 0.0 2.0 0.00 0.00 0.00 70 1010.0
20260506011522 45 216 1.0 2.0 0.00 0.00 0.00 71 1009.7
20260506011019 46 0.0 0.0 0.00 0.00 0.00 71 1009.8
20260506010517 46 330 0.0 1.0 0.00 0.00 0.00 69 1009.9
20260506010035 46 192 0.0 2.0 0.00 0.00 0.00 70 1010.0
20260506005554 46 135 0.0 2.0 0.00 0.00 0.00 69 1010.0
20260506005032 46 185 0.0 1.0 0.00 0.00 0.00 69 1010.0
20260506004530 46 292 0.0 1.0 0.00 0.00 0.00 68 1010.0
20260506004028 46 0.0 0.0 0.00 0.00 0.00 68 1010.0
20260506003527 46 0.0 0.0 0.00 0.00 0.00 69 1010.0
20260506003025 46 0.0 0.0 0.00 0.00 0.00 68 1010.1
20260506002525 47 0.0 0.0 0.00 0.00 0.00 68 1010.2
20260506002023 47 237 0.0 2.0 0.00 0.00 0.00 67 1010.1
20260506001520 47 218 0.0 2.0 0.00 0.00 0.00 68 1010.0
20260506001039 47 247 0.0 3.0 0.00 0.00 0.00 67 1010.0
20260506000517 47 251 1.0 4.0 0.00 0.00 0.00 67 1010.0
20260506000035 47 226 0.0 2.0 0.00 0.00 0.00 67 1009.9
20260505235533 47 243 1.0 2.0 0.00 0.00 0.00 67 1009.9
20260505235032 47 245 0.0 2.0 0.00 0.00 0.00 68 1010.0
20260505234550 47 261 0.0 1.0 0.00 0.00 0.00 67 1010.1
20260505234028 47 225 0.0 1.0 0.00 0.00 0.00 68 1010.1
20260505233527 48 296 0.0 1.0 0.00 0.00 0.00 67 1010.2
20260505233025 48 0.0 0.0 0.00 0.00 0.00 66 1010.1
20260505232524 48 265 0.0 1.0 0.00 0.00 0.00 64 1010.2
20260505232042 49 258 0.0 1.0 0.00 0.00 0.00 64 1010.1
20260505231519 49 269 1.0 2.0 0.00 0.00 0.00 64 1010.1
20260505231018 49 248 1.0 3.0 0.00 0.00 0.00 64 1010.1
20260505230516 49 289 1.0 3.0 0.00 0.00 0.00 65 1010.1
20260505230034 48 236 1.0 2.0 0.00 0.00 0.00 66 1010.2
20260505225533 49 218 0.0 2.0 0.00 0.00 0.00 65 1010.2
20260505225031 48 247 1.0 3.0 0.00 0.00 0.00 66 1010.1
20260505224529 48 247 0.0 2.0 0.00 0.00 0.00 67 1010.3
20260505224028 48 0.0 0.0 0.00 0.00 0.00 68 1010.3
20260505223526 48 0.0 0.0 0.00 0.00 0.00 68 1010.2
20260505223045 49 0.0 0.0 0.00 0.00 0.00 67 1010.2
20260505222524 49 246 0.0 1.0 0.00 0.00 0.00 67 1010.1
20260505222021 49 0.0 0.0 0.00 0.00 0.00 67 1010.1
20260505221519 48 0.0 0.0 0.00 0.00 0.00 67 1010.1
20260505221018 48 0.0 0.0 0.00 0.00 0.00 70 1010.3
20260505220516 49 0.0 0.0 0.00 0.00 0.00 68 1010.2
20260505220034 49 0.0 0.0 0.00 0.00 0.00 66 1010.2
20260505215532 49 231 0.0 1.0 0.00 0.00 0.00 67 1010.1
20260505215031 49 215 0.0 1.0 0.00 0.00 0.00 67 1010.1
20260505214529 49 232 0.0 1.0 0.00 0.00 0.00 67 1010.1
20260505214027 50 0.0 0.0 0.00 0.00 0.00 66 1010.0
20260505213526 50 220 0.0 1.0 0.00 0.00 0.00 64 1009.9
20260505213024 50 0.0 0.0 0.00 0.00 0.00 65 1010.0
20260505212522 50 202 0.0 1.0 0.00 0.00 0.00 65 1010.0
20260505212020 50 26 0.0 1.0 0.00 0.00 0.00 64 1009.9
20260505211519 51 252 0.0 2.0 0.00 0.00 0.00 63 1009.9
20260505211017 51 0.0 0.0 0.00 0.00 0.00 64 1009.9
20260505210535 51 0.0 0.0 0.00 0.00 0.00 63 1009.8
20260505210034 51 219 0.0 2.0 0.00 0.00 0.00 64 1009.8
20260505205552 50 252 0.0 1.0 0.00 0.00 0.00 64 1009.8
20260505205030 50 195 0.0 1.0 0.00 0.00 0.00 65 1009.9
20260505204548 50 220 0.0 1.0 0.00 0.00 0.00 65 1009.8
20260505204028 51 0.0 0.0 0.00 0.00 0.00 65 1009.6
20260505203525 51 201 0.0 2.0 0.00 0.00 0.00 64 1009.6
20260505203023 50 202 1.0 2.0 0.00 0.00 0.00 65 1009.7
20260505202521 50 238 0.0 2.0 0.00 0.00 0.00 67 1009.6
20260505202020 51 0.0 0.0 0.00 0.00 0.00 67 1009.6
20260505201518 51 0.0 0.0 0.00 0.00 0.00 66 1009.7
20260505201018 51 210 0.0 2.0 0.00 0.00 0.00 65 1009.7
20260505200635 51 0.0 0.0 0.00 0.00 0.00 65 1009.5
20260505200053 51 0.0 0.0 0.00 0.00 0.00 66 1009.6
20260505195532 51 220 0.0 1.0 0.00 0.00 0.00 67 1009.6
20260505195030 51 0.0 0.0 0.00 0.00 0.00 67 1009.6
20260505194528 51 163 1.0 6.0 0.00 0.00 0.00 67 1009.5
20260505194026 52 16 0.0 3.0 0.00 0.00 0.00 66 1009.5
20260505193545 51 237 0.0 2.0 0.00 0.00 0.00 66 1009.4
20260505193023 51 41 0.0 1.0 0.00 0.00 0.00 67 1009.3
20260505192542 51 59 0.0 1.0 0.00 0.00 0.00 67 1009.3
20260505192019 52 167 0.0 1.0 0.00 0.00 0.00 66 1009.2
20260505191518 52 0.0 0.0 0.00 0.00 0.00 66 1009.1
20260505191016 52 15 0.0 3.0 0.00 0.00 0.00 66 1009.1
20260505190535 52 0.0 0.0 0.00 0.00 0.00 66 1009.0
20260505190033 52 78 0.0 1.0 0.00 0.00 0.00 65 1008.9
20260505185531 53 0.0 0.0 0.00 0.00 0.00 65 1009.0
20260505185029 53 196 1.0 2.0 0.00 0.00 0.00 61 1009.0
20260505184528 53 54 0.0 1.0 0.00 0.00 0.00 60 1008.8
20260505184026 53 0.0 0.0 0.00 0.00 0.00 64 1008.8
20260505183524 53 182 0.0 1.0 0.00 0.00 0.00 63 1008.8
20260505183042 54 181 0.0 2.0 0.00 0.00 0.00 61 1008.7
20260505182520 55 339 0.0 3.0 0.00 0.00 0.00 58 1008.7
20260505182019 55 187 0.0 1.0 0.00 0.00 0.00 57 1008.6
20260505181519 56 21 2.0 8.0 0.00 0.00 0.00 54 1008.5
20260505181015 56 6 2.0 6.0 0.00 0.00 0.00 54 1008.7
20260505180534 56 357 2.0 8.0 0.00 0.00 0.00 53 1008.6
20260505180032 56 360 4.0 10.0 0.00 0.00 0.00 53 1008.6
20260505175533 56 19 3.0 9.0 0.00 0.00 0.00 53 1008.7
20260505175030 56 2 2.0 7.0 0.00 0.00 0.00 52 1008.5
20260505174527 56 13 4.0 9.0 0.00 0.00 0.00 52 1008.6
20260505174025 57 6 4.0 11.0 0.00 0.00 0.00 52 1008.6
20260505173524 57 12 4.0 9.0 0.00 0.00 0.00 52 1008.5
20260505173022 57 18 4.0 17.0 0.00 0.00 0.00 52 1008.4
20260505172600 57 3 4.0 11.0 0.00 0.00 0.00 52 1008.4
20260505172021 57 347 4.0 9.0 0.00 0.00 0.00 52 1008.5
20260505171517 57 16 5.0 10.0 0.00 0.00 0.00 52 1008.4
20260505171035 57 9 5.0 10.0 0.00 0.00 0.00 51 1008.4
20260505170614 58 349 4.0 15.0 0.00 0.00 0.00 50 1008.5
20260505170032 57 1 4.0 9.0 0.00 0.00 0.00 50 1008.5
20260505165530 58 4 5.0 10.0 0.00 0.00 0.00 51 1008.6
20260505165029 58 17 5.0 14.0 0.00 0.00 0.00 51 1008.5
20260505164527 58 7 6.0 15.0 0.00 0.00 0.00 50 1008.6
20260505164024 58 13 4.0 13.0 0.00 0.00 0.00 50 1008.5
20260505163523 58 353 3.0 7.0 0.00 0.00 0.00 50 1008.6